Time,TemperatureF,DewpointF,PressureIn,WindDirection,WindDirectionDegrees,WindSpeedMPH,WindSpeedGustMPH,Humidity,HourlyPrecipIn,Conditions,Clouds,dailyrainin,SoftwareType,DateUTC
2013-03-20 00:09:00,43.4,23.0,30.23,NE,55,11.0,-999.0,45,-99.99,,,0.00,weatherlink.com 1.10,2013-03-20 05:09:00,
2013-03-20 00:24:00,43.0,23.0,30.23,NE,54,10.0,-999.0,46,-99.99,,,0.00,weatherlink.com 1.10,2013-03-20 05:24:00,
2013-03-20 00:39:00,42.1,24.0,30.23,NE,53,13.0,-999.0,48,-99.99,,,0.00,weatherlink.com 1.10,2013-03-20 05:39:00,
2013-03-20 00:54:00,41.8,24.0,30.23,NE,49,11.0,-999.0,49,-99.99,,,0.00,weatherlink.com 1.10,2013-03-20 05:54:00,
2013-03-20 01:09:00,41.4,24.0,30.23,ENE,57,13.0,-999.0,50,-99.99,,,0.00,weatherlink.com 1.10,2013-03-20 06:09:00,
2013-03-20 01:24:00,41.3,24.0,30.23,NE,55,13.0,-999.0,50,-99.99,,,0.00,weatherlink.com 1.10,2013-03-20 06:24:00,
2013-03-20 01:39:00,41.0,23.0,30.22,ENE,66,15.0,-999.0,50,-99.99,,,0.00,weatherlink.com 1.10,2013-03-20 06:39:00,
2013-03-20 01:54:00,40.5,23.0,30.23,NE,55,13.0,-999.0,51,-99.99,,,0.00,weatherlink.com 1.10,2013-03-20 06:54:00,
2013-03-20 02:09:00,40.2,24.0,30.23,NE,53,11.0,-999.0,52,-99.99,,,0.00,weatherlink.com 1.10,2013-03-20 07:09:00,
2013-03-20 02:24:00,40.0,23.0,30.23,NE,52,11.0,-999.0,52,-99.99,,,0.00,weatherlink.com 1.10,2013-03-20 07:24:00,
2013-03-20 02:39:00,39.8,23.0,30.24,NE,54,12.0,-999.0,52,-99.99,,,0.00,weatherlink.com 1.10,2013-03-20 07:39:00,
2013-03-20 02:54:00,39.6,24.0,30.23,NE,55,7.0,-999.0,53,-99.99,,,0.00,weatherlink.com 1.10,2013-03-20 07:54:00,
2013-03-20 03:09:00,39.6,24.0,30.23,NE,55,11.0,-999.0,54,-99.99,,,0.00,weatherlink.com 1.10,2013-03-20 08:09:00,
2013-03-20 03:24:00,39.5,24.0,30.22,NE,55,7.0,-999.0,54,-99.99,,,0.00,weatherlink.com 1.10,2013-03-20 08:24:00,
2013-03-20 03:39:00,39.4,24.0,30.21,ENE,57,7.0,-999.0,54,-99.99,,,0.00,weatherlink.com 1.10,2013-03-20 08:39:00,
2013-03-20 03:54:00,39.3,24.0,30.21,ENE,59,6.0,-999.0,55,-99.99,,,0.00,weatherlink.com 1.10,2013-03-20 08:54:00,
2013-03-20 04:09:00,40.5,24.0,30.21,ENE,78,6.0,-999.0,53,-99.99,,,0.00,weatherlink.com 1.10,2013-03-20 09:09:00,
2013-03-20 04:24:00,40.6,24.0,30.21,ENE,75,7.0,-999.0,53,-99.99,,,0.00,weatherlink.com 1.10,2013-03-20 09:24:00,
2013-03-20 04:39:00,40.6,24.0,30.21,ENE,74,7.0,-999.0,53,-99.99,,,0.00,weatherlink.com 1.10,2013-03-20 09:39:00,
2013-03-20 04:54:00,40.7,25.0,30.22,ENE,75,4.0,-999.0,53,-99.99,,,0.00,weatherlink.com 1.10,2013-03-20 09:54:00,
2013-03-20 05:09:00,40.7,25.0,30.22,ENE,75,4.0,-999.0,53,-99.99,,,0.00,weatherlink.com 1.10,2013-03-20 10:09:00,
2013-03-20 05:24:00,40.4,25.0,30.22,ENE,71,5.0,-999.0,54,-99.99,,,0.00,weatherlink.com 1.10,2013-03-20 10:24:00,
2013-03-20 05:39:00,40.0,24.0,30.22,ENE,71,4.0,-999.0,54,-99.99,,,0.00,weatherlink.com 1.10,2013-03-20 10:39:00,
2013-03-20 05:54:00,39.3,25.0,30.23,ENE,71,3.0,-999.0,56,-99.99,,,0.00,weatherlink.com 1.10,2013-03-20 10:54:00,
2013-03-20 06:09:00,39.3,25.0,30.24,ENE,71,0.0,-999.0,56,-99.99,,,0.00,weatherlink.com 1.10,2013-03-20 11:09:00,
2013-03-20 06:24:00,39.2,25.0,30.24,ENE,71,0.0,-999.0,56,-99.99,,,0.00,weatherlink.com 1.10,2013-03-20 11:24:00,
2013-03-20 06:39:00,39.2,25.0,30.25,ENE,71,0.0,-999.0,57,-99.99,,,0.00,weatherlink.com 1.10,2013-03-20 11:39:00,
2013-03-20 06:54:00,39.2,25.0,30.26,ENE,71,0.0,-999.0,57,-99.99,,,0.00,weatherlink.com 1.10,2013-03-20 11:54:00,
2013-03-20 07:09:00,39.2,25.0,30.27,ENE,71,0.0,-999.0,57,-99.99,,,0.00,weatherlink.com 1.10,2013-03-20 12:09:00,
2013-03-20 07:24:00,39.4,25.0,30.28,ENE,71,0.0,-999.0,56,-99.99,,,0.00,weatherlink.com 1.10,2013-03-20 12:24:00,
2013-03-20 07:39:00,39.6,25.0,30.29,ENE,71,0.0,-999.0,56,-99.99,,,0.00,weatherlink.com 1.10,2013-03-20 12:39:00,
2013-03-20 07:54:00,40.0,25.0,30.29,ENE,66,0.0,-999.0,56,-99.99,,,0.00,weatherlink.com 1.10,2013-03-20 12:54:00,
2013-03-20 08:09:00,40.7,25.0,30.29,ENE,63,0.0,-999.0,55,-99.99,,,0.00,weatherlink.com 1.10,2013-03-20 13:09:00,
2013-03-20 08:24:00,41.8,26.0,30.30,NE,50,3.0,-999.0,53,-99.99,,,0.00,weatherlink.com 1.10,2013-03-20 13:24:00,
2013-03-20 08:39:00,42.5,26.0,30.30,NE,42,1.0,-999.0,52,-99.99,,,0.00,weatherlink.com 1.10,2013-03-20 13:39:00,
2013-03-20 08:54:00,43.0,26.0,30.30,NNE,33,2.0,-999.0,51,-99.99,,,0.00,weatherlink.com 1.10,2013-03-20 13:54:00,
2013-03-20 09:09:00,43.1,25.0,30.30,NNE,32,1.0,-999.0,50,-99.99,,,0.00,weatherlink.com 1.10,2013-03-20 14:09:00,
2013-03-20 09:24:00,44.5,26.0,30.30,NNE,27,2.0,-999.0,48,-99.99,,,0.00,weatherlink.com 1.10,2013-03-20 14:24:00,
2013-03-20 09:39:00,45.2,25.0,30.30,NNE,24,0.0,-999.0,46,-99.99,,,0.00,weatherlink.com 1.10,2013-03-20 14:39:00,
2013-03-20 09:54:00,45.3,26.0,30.31,NNW,331,0.0,-999.0,47,-99.99,,,0.00,weatherlink.com 1.10,2013-03-20 14:54:00,
2013-03-20 10:09:00,45.2,27.0,30.31,NNW,342,7.0,-999.0,49,-99.99,,,0.00,weatherlink.com 1.10,2013-03-20 15:09:00,
2013-03-20 10:24:00,44.5,27.0,30.32,North,351,1.0,-999.0,51,-99.99,,,0.00,weatherlink.com 1.10,2013-03-20 15:24:00,
2013-03-20 10:39:00,45.5,29.0,30.32,NNE,28,5.0,-999.0,53,-99.99,,,0.00,weatherlink.com 1.10,2013-03-20 15:39:00,
2013-03-20 10:54:00,45.9,29.0,30.32,North,355,5.0,-999.0,51,-99.99,,,0.00,weatherlink.com 1.10,2013-03-20 15:54:00,
2013-03-20 11:09:00,45.1,28.0,30.31,WNW,295,1.0,-999.0,52,-99.99,,,0.00,weatherlink.com 1.10,2013-03-20 16:09:00,
2013-03-20 11:24:00,46.1,30.0,30.31,NW,315,1.0,-999.0,54,-99.99,,,0.00,weatherlink.com 1.10,2013-03-20 16:24:00,
2013-03-20 11:39:00,46.8,31.0,30.31,NW,323,0.0,-999.0,54,-99.99,,,0.00,weatherlink.com 1.10,2013-03-20 16:39:00,
2013-03-20 11:54:00,45.9,31.0,30.30,NW,319,1.0,-999.0,56,-99.99,,,0.00,weatherlink.com 1.10,2013-03-20 16:54:00,
2013-03-20 12:24:00,47.9,30.0,30.29,NW,306,2.0,-999.0,51,-99.99,,,0.00,weatherlink.com 1.10,2013-03-20 17:24:00,
2013-03-20 12:39:00,47.4,31.0,30.28,NW,306,9.0,-999.0,54,-99.99,,,0.00,weatherlink.com 1.10,2013-03-20 17:39:00,
2013-03-20 12:54:00,48.2,31.0,30.28,NNW,331,1.0,-999.0,52,-99.99,,,0.00,weatherlink.com 1.10,2013-03-20 17:54:00,
2013-03-20 13:09:00,47.7,31.0,30.27,NNW,339,7.0,-999.0,52,-99.99,,,0.00,weatherlink.com 1.10,2013-03-20 18:09:00,
2013-03-20 13:24:00,47.2,30.0,30.26,NW,325,12.0,-999.0,52,-99.99,,,0.00,weatherlink.com 1.10,2013-03-20 18:24:00,
2013-03-20 13:39:00,48.2,30.0,30.25,NNW,331,0.0,-999.0,49,-99.99,,,0.00,weatherlink.com 1.10,2013-03-20 18:39:00,
2013-03-20 13:54:00,48.1,30.0,30.25,WNW,293,7.0,-999.0,50,-99.99,,,0.00,weatherlink.com 1.10,2013-03-20 18:54:00,
2013-03-20 14:09:00,47.9,30.0,30.25,NW,309,0.0,-999.0,50,-99.99,,,0.00,weatherlink.com 1.10,2013-03-20 19:09:00,
2013-03-20 14:24:00,47.6,29.0,30.23,NW,306,1.0,-999.0,49,-99.99,,,0.00,weatherlink.com 1.10,2013-03-20 19:24:00,
2013-03-20 14:39:00,48.2,30.0,30.23,North,355,7.0,-999.0,49,-99.99,,,0.00,weatherlink.com 1.10,2013-03-20 19:39:00,
2013-03-20 14:54:00,48.1,28.0,30.21,NW,321,1.0,-999.0,46,-99.99,,,0.00,weatherlink.com 1.10,2013-03-20 19:54:00,
2013-03-20 15:09:00,47.5,26.0,30.21,NW,317,7.0,-999.0,43,-99.99,,,0.00,weatherlink.com 1.10,2013-03-20 20:09:00,
2013-03-20 15:24:00,47.6,26.0,30.19,NW,316,1.0,-999.0,44,-99.99,,,0.00,weatherlink.com 1.10,2013-03-20 20:24:00,
2013-03-20 15:39:00,48.2,25.0,30.19,NW,316,15.0,-999.0,41,-99.99,,,0.00,weatherlink.com 1.10,2013-03-20 20:39:00,
2013-03-20 15:54:00,48.3,25.0,30.18,North,5,1.0,-999.0,41,-99.99,,,0.00,weatherlink.com 1.10,2013-03-20 20:54:00,
2013-03-20 16:09:00,49.0,25.0,30.18,NW,325,10.0,-999.0,40,-99.99,,,0.00,weatherlink.com 1.10,2013-03-20 21:09:00,
2013-03-20 16:24:00,48.3,25.0,30.18,NNW,348,11.0,-999.0,40,-99.99,,,0.00,weatherlink.com 1.10,2013-03-20 21:24:00,
2013-03-20 16:54:00,48.2,24.0,30.17,NW,317,9.0,-999.0,39,-99.99,,,0.00,weatherlink.com 1.10,2013-03-20 21:54:00,
2013-03-20 17:09:00,47.9,24.0,30.16,NW,323,10.0,-999.0,39,-99.99,,,0.00,weatherlink.com 1.10,2013-03-20 22:09:00,
2013-03-20 17:24:00,48.0,24.0,30.16,NW,313,8.0,-999.0,39,-99.99,,,0.00,weatherlink.com 1.10,2013-03-20 22:24:00,
2013-03-20 17:39:00,47.6,23.0,30.16,NNW,338,9.0,-999.0,38,-99.99,,,0.00,weatherlink.com 1.10,2013-03-20 22:39:00,
2013-03-20 17:54:00,47.6,23.0,30.15,NW,322,1.0,-999.0,38,-99.99,,,0.00,weatherlink.com 1.10,2013-03-20 22:54:00,
2013-03-20 18:09:00,47.4,22.0,30.15,NW,319,8.0,-999.0,37,-99.99,,,0.00,weatherlink.com 1.10,2013-03-20 23:09:00,
2013-03-20 18:24:00,46.9,22.0,30.15,NW,315,2.0,-999.0,37,-99.99,,,0.00,weatherlink.com 1.10,2013-03-20 23:24:00,
2013-03-20 18:39:00,46.1,22.0,30.15,NNW,330,9.0,-999.0,38,-99.99,,,0.00,weatherlink.com 1.10,2013-03-20 23:39:00,
2013-03-20 18:54:00,45.8,21.0,30.15,WNW,302,0.0,-999.0,38,-99.99,,,0.00,weatherlink.com 1.10,2013-03-20 23:54:00,
2013-03-20 19:09:00,45.2,20.0,30.14,NW,311,8.0,-999.0,36,-99.99,,,0.00,weatherlink.com 1.10,2013-03-21 00:09:00,
2013-03-20 19:24:00,44.5,19.0,30.14,WNW,299,11.0,-999.0,36,-99.99,,,0.00,weatherlink.com 1.10,2013-03-21 00:24:00,
2013-03-20 19:39:00,44.1,19.0,30.14,NW,318,5.0,-999.0,36,-99.99,,,0.00,weatherlink.com 1.10,2013-03-21 00:39:00,
2013-03-20 19:54:00,43.8,19.0,30.14,WNW,298,0.0,-999.0,37,-99.99,,,0.00,weatherlink.com 1.10,2013-03-21 00:54:00,
2013-03-20 20:09:00,43.4,19.0,30.14,NW,306,8.0,-999.0,38,-99.99,,,0.00,weatherlink.com 1.10,2013-03-21 01:09:00,
2013-03-20 20:24:00,43.0,19.0,30.14,NW,312,2.0,-999.0,38,-99.99,,,0.00,weatherlink.com 1.10,2013-03-21 01:24:00,
2013-03-20 20:39:00,42.4,19.0,30.14,NW,313,0.0,-999.0,39,-99.99,,,0.00,weatherlink.com 1.10,2013-03-21 01:39:00,
2013-03-20 20:54:00,41.9,19.0,30.14,NW,313,0.0,-999.0,40,-99.99,,,0.00,weatherlink.com 1.10,2013-03-21 01:54:00,
2013-03-20 21:09:00,41.6,18.0,30.14,NW,313,0.0,-999.0,39,-99.99,,,0.00,weatherlink.com 1.10,2013-03-21 02:09:00,
2013-03-20 21:24:00,41.4,19.0,30.14,NW,313,0.0,-999.0,40,-99.99,,,0.00,weatherlink.com 1.10,2013-03-21 02:24:00,
2013-03-20 21:39:00,41.1,18.0,30.13,NW,313,5.0,-999.0,39,-99.99,,,0.00,weatherlink.com 1.10,2013-03-21 02:39:00,
2013-03-20 21:54:00,41.0,18.0,30.14,NW,313,4.0,-999.0,40,-99.99,,,0.00,weatherlink.com 1.10,2013-03-21 02:54:00,
2013-03-20 22:09:00,40.8,18.0,30.14,NW,313,6.0,-999.0,40,-99.99,,,0.00,weatherlink.com 1.10,2013-03-21 03:09:00,
2013-03-20 22:24:00,40.5,18.0,30.14,NW,313,6.0,-999.0,40,-99.99,,,0.00,weatherlink.com 1.10,2013-03-21 03:24:00,
2013-03-20 22:39:00,40.6,18.0,30.14,NW,324,7.0,-999.0,40,-99.99,,,0.00,weatherlink.com 1.10,2013-03-21 03:39:00,
2013-03-20 22:54:00,40.3,18.0,30.13,NNW,329,8.0,-999.0,40,-99.99,,,0.00,weatherlink.com 1.10,2013-03-21 03:54:00,
2013-03-20 23:09:00,40.0,18.0,30.13,NNW,330,7.0,-999.0,41,-99.99,,,0.00,weatherlink.com 1.10,2013-03-21 04:09:00,
2013-03-20 23:24:00,39.7,18.0,30.13,NNW,331,7.0,-999.0,41,-99.99,,,0.00,weatherlink.com 1.10,2013-03-21 04:24:00,
2013-03-20 23:39:00,39.4,18.0,30.12,NNW,333,7.0,-999.0,42,-99.99,,,0.00,weatherlink.com 1.10,2013-03-21 04:39:00,
2013-03-20 23:54:00,38.5,20.0,30.12,NNW,345,0.0,-999.0,47,-99.99,,,0.00,weatherlink.com 1.10,2013-03-21 04:54:00,